This is the latest recevied weather packets stored in our database for station/object AF9W-5. If no packets are shown the sender has not sent any weather packets the latest 1 day(s).
| Time | Temp. | Humidity | Pressure | Rain* | Wind** | Luminosity | Snow |
|---|---|---|---|---|---|---|---|
| 1778061961 | 10.56° C | 63% | 1014 hPa | 0 mm | - | 0 W/m² | - |
| 1778060751 | 10.56° C | 65% | 1014.1 hPa | 0 mm | - | 0 W/m² | - |
| 1778060449 | 11.11° C | 65% | 1014 hPa | 0 mm | - | 0 W/m² | - |
| 1778060147 | 11.11° C | 63% | 1014.1 hPa | 0 mm | - | 0 W/m² | - |
| 1778059844 | 11.11° C | 62% | 1014 hPa | 0 mm | - | 0 W/m² | - |
| 1778059542 | 11.11° C | 63% | 1013.9 hPa | 0 mm | - | 0 W/m² | - |
| 1778059238 | 11.11° C | 64% | 1013.9 hPa | 0 mm | - | 0 W/m² | - |
| 1778058937 | 11.67° C | 61% | 1013.5 hPa | 0 mm | - | 0 W/m² | - |
| 1778057725 | 11.11° C | 62% | 1013.6 hPa | 0 mm | - | 0 W/m² | - |
| 1778057421 | 11.67° C | 63% | 1013.9 hPa | 0 mm | - | 0 W/m² | - |
| 1778057118 | 11.67° C | 60% | 1014 hPa | 0 mm | - | 0 W/m² | - |
| 1778056814 | 11.67° C | 60% | 1014 hPa | 0 mm | - | 0 W/m² | - |
| 1778056209 | 12.22° C | 60% | 1013.7 hPa | 0 mm | - | 0 W/m² | - |
| 1778055601 | 12.22° C | 60% | 1014.2 hPa | 0 mm | - | 0 W/m² | - |
| 1778054694 | 12.78° C | 57% | 1014.3 hPa | 0 mm | - | 0 W/m² | - |
| 1778054391 | 12.78° C | 57% | 1014.2 hPa | 0 mm | - | 0 W/m² | - |
| 1778054089 | 12.78° C | 58% | 1014.3 hPa | 0 mm | - | 0 W/m² | - |
| 1778053785 | 12.78° C | 56% | 1014.1 hPa | 0 mm | - | 0 W/m² | - |
| 1778053482 | 12.78° C | 59% | 1014.4 hPa | 0 mm | - | 0 W/m² | - |
| 1778052877 | 13.33° C | 59% | 1014.3 hPa | 0 mm | - | 0 W/m² | - |
| 1778052575 | 13.33° C | 59% | 1014.3 hPa | 0 mm | - | 0 W/m² | - |
| 1778052272 | 13.33° C | 59% | 1014.4 hPa | 0 mm | - | 0 W/m² | - |
| 1778051364 | 13.33° C | 54% | 1014.1 hPa | 0 mm | - | 0 W/m² | - |
| 1778051061 | 13.33° C | 54% | 1014.2 hPa | 0 mm | - | 0 W/m² | - |
| 1778050758 | 13.89° C | 51% | 1014.2 hPa | 0 mm | - | 0 W/m² | - |
* Rain latest hour (hover to see other rain measurements)
** Current wind speed in m/s (hover to see current wind gust speed)